Simultaneous Nadir Overpasses (SNOs) Predictions

Prediction of SNOs between GOES-17 and AQUA Satellite Orbit:

Table of predicted SNOs for the next 14.0 days since TLE Epoch: 10/22/2022
Index Date Time (GOES-17) GOES-17 Lat,Lon AQUA Lat,Lon Distance(km) Time Diff (sec)
1 10/22/2022 11:06:25 0.03,-137.33 0.92,-141.46 469.67 80
2 10/23/2022 22:35:09 -0.04,-137.33 0.86,-133.23 466.98 80
3 10/24/2022 10:53:34 0.04,-137.32 0.24,-138.33 114.81 80
4 10/26/2022 10:43:22 0.04,-137.30 -0.40,-135.20 239.39 80
5 10/26/2022 23:01:56 -0.03,-137.30 -0.68,-140.35 346.34 80
6 10/28/2022 22:51:44 -0.03,-137.27 -0.01,-137.21 6.73 80
7 10/30/2022 22:38:51 -0.03,-137.23 0.62,-134.07 358.63 80
8 10/31/2022 10:57:15 0.03,-137.22 0.46,-139.18 223.77 80
9 11/02/2022 10:47:02 0.02,-137.17 -0.19,-136.04 127.94 80
10 11/02/2022 23:05:36 -0.02,-137.16 -0.86,-141.19 458.38 80
11 11/04/2022 10:34:10 0.02,-137.13 -0.87,-132.91 479.70 80
12 11/04/2022 22:52:42 -0.02,-137.12 -0.24,-138.05 106.57 80
